contact:dominique.lefevre@mio.osupytheas.fr, maurice.libes@osupytheas.fr, didier.mallarino@osupytheas.fr
Project:EMSO http://www.emso-fr.org/EMSO-France
Depth: 2436.0 m
Title:EMSO Ligure Ouest : Data MII capteur AQUADOPP
Date,Latitude,Longitude,X_East,Y_North,Z_Up,Amplitude_X,Amplitude_Y,Amplitude_Z,Batterie,SoundSpeed,Heading,Pitch,Roll,Pressure,TIS,Speed,Direction
, degrees North, degrees East, m.s-1, m.s-1,m.s-1, 1, 1, 1, Volt, m.s-1, degree, degree, degree, dbar, degree_C, m.s-1, degree
2022-03-20T00:04:03,42.805,6.029,-0.056,-0.006,0.011,105.0,105.0,104.0,13.4,1505.2,326.2,-0.8,1.8,2470.735,13.28,0.056,263.9
2022-03-20T00:07:03,42.805,6.029,-0.05,-0.009,0.006,107.0,105.0,103.0,13.4,1505.2,326.4,-0.8,1.8,2470.747,13.28,0.05,259.8
2022-03-20T00:10:03,42.805,6.029,-0.053,0.005,-0.018,106.0,105.0,103.0,13.3,1505.2,329.3,-0.8,1.8,2470.717,13.28,0.053,275.4
2022-03-20T00:13:03,42.805,6.029,-0.035,-0.02,-0.01,104.0,105.0,103.0,13.4,1505.2,322.1,-0.7,1.8,2470.762,13.28,0.04,240.3
2022-03-20T00:16:03,42.805,6.029,-0.036,0.011,-0.021,106.0,104.0,103.0,13.4,1505.2,331.6,-0.8,1.9,2470.753,13.28,0.037,287.0
2022-03-20T00:19:03,42.805,6.029,-0.039,0.006,-0.022,109.0,106.0,104.0,13.4,1505.2,327.6,-0.8,1.8,2470.749,13.29,0.039,278.7
2022-03-20T00:22:03,42.805,6.029,-0.034,-0.008,-0.035,104.0,106.0,103.0,13.4,1505.2,329.6,-0.7,1.8,2470.745,13.29,0.034,256.8
2022-03-20T00:25:03,42.805,6.029,-0.048,0.008,0.009,104.0,105.0,104.0,13.4,1505.2,324.1,-0.8,1.8,2470.69,13.29,0.048,279.5
2022-03-20T00:28:03,42.805,6.029,-0.053,0.032,0.019,106.0,105.0,103.0,13.4,1505.2,324.9,-0.8,1.8,2470.68,13.29,0.061,301.1
2022-03-20T00:31:03,42.805,6.029,-0.032,0.016,0.002,106.0,106.0,103.0,13.4,1505.2,329.6,-0.8,1.8,2470.703,13.29,0.035,296.6
2022-03-20T00:34:03,42.805,6.029,-0.028,0.019,-0.008,105.0,106.0,103.0,13.4,1505.2,325.5,-0.8,1.8,2470.714,13.29,0.033,304.2
2022-03-20T00:37:03,42.805,6.029,-0.014,0.002,0.007,104.0,107.0,104.0,13.3,1505.2,329.8,-0.8,1.8,2470.728,13.29,0.014,278.1
2022-03-20T00:40:03,42.805,6.029,-0.03,0.021,0.0,105.0,105.0,104.0,13.4,1505.2,325.1,-0.7,1.8,2470.691,13.29,0.036,305.0
2022-03-20T00:43:03,42.805,6.029,-0.055,-0.014,-0.016,106.0,105.0,104.0,13.4,1505.2,329.9,-0.8,1.9,2470.689,13.29,0.056,255.7
2022-03-20T00:46:03,42.805,6.029,-0.018,0.012,-0.001,106.0,105.0,103.0,13.4,1505.2,324.1,-0.7,1.8,2470.678,13.29,0.021,303.7
2022-03-20T00:49:03,42.805,6.029,-0.039,0.007,-0.019,106.0,105.0,104.0,13.4,1505.2,327.7,-0.8,1.8,2470.676,13.29,0.039,280.2
2022-03-20T00:52:03,42.805,6.029,-0.037,0.015,-0.004,106.0,106.0,103.0,13.4,1505.2,327.9,-0.7,1.8,2470.717,13.29,0.039,292.1
2022-03-20T00:55:03,42.805,6.029,-0.026,0.009,-0.009,105.0,107.0,104.0,13.4,1505.2,327.1,-0.8,1.9,2470.659,13.29,0.027,289.1
2022-03-20T00:58:03,42.805,6.029,-0.033,-0.016,0.006,106.0,106.0,103.0,13.4,1505.2,328.3,-0.8,1.8,2470.74,13.29,0.036,244.1
2022-03-20T01:04:03,42.805,6.029,-0.017,0.007,-0.007,106.0,108.0,104.0,13.4,1505.2,329.0,-0.8,1.8,2470.706,13.28,0.018,292.4
2022-03-20T01:07:03,42.805,6.029,-0.026,0.005,0.01,105.0,106.0,104.0,13.4,1505.2,325.6,-0.8,1.8,2470.727,13.28,0.026,280.9
2022-03-20T01:10:03,42.805,6.029,-0.017,0.011,-0.002,105.0,106.0,103.0,13.3,1505.2,324.6,-0.8,1.8,2470.699,13.29,0.02,302.9
2022-03-20T01:13:03,42.805,6.029,-0.035,0.0,-0.02,107.0,106.0,103.0,13.4,1505.2,326.4,-0.8,1.8,2470.691,13.29,0.035,270.0
2022-03-20T01:16:03,42.805,6.029,-0.033,0.006,0.014,106.0,107.0,102.0,13.4,1505.2,325.5,-0.7,1.8,2470.671,13.29,0.033,280.3
2022-03-20T01:19:03,42.805,6.029,-0.019,0.01,0.015,107.0,106.0,103.0,13.4,1505.2,323.3,-0.7,1.8,2470.698,13.29,0.021,297.8
2022-03-20T01:22:03,42.805,6.029,-0.033,0.006,0.012,105.0,107.0,104.0,13.4,1505.2,332.7,-0.7,1.8,2470.702,13.29,0.033,280.3
2022-03-20T01:25:03,42.805,6.029,-0.019,-0.008,0.003,107.0,106.0,104.0,13.4,1505.2,329.8,-0.7,1.8,2470.69,13.29,0.02,247.2
2022-03-20T01:28:03,42.805,6.029,-0.031,0.017,-0.007,107.0,106.0,104.0,13.3,1505.2,327.6,-0.8,1.8,2470.667,13.29,0.035,298.7
2022-03-20T01:31:03,42.805,6.029,-0.022,0.013,0.01,106.0,106.0,104.0,13.4,1505.2,325.4,-0.8,1.8,2470.628,13.29,0.025,300.6
2022-03-20T01:34:03,42.805,6.029,-0.039,-0.016,-0.015,106.0,106.0,104.0,13.4,1505.2,324.9,-0.8,1.8,2470.641,13.29,0.042,247.7
2022-03-20T01:37:03,42.805,6.029,-0.026,0.015,-0.003,106.0,106.0,104.0,13.4,1505.2,328.8,-0.8,1.8,2470.648,13.29,0.03,300.0
2022-03-20T01:40:03,42.805,6.029,-0.029,0.025,0.0,106.0,106.0,104.0,13.4,1505.2,324.1,-0.7,1.8,2470.652,13.29,0.038,310.8
2022-03-20T01:43:03,42.805,6.029,-0.034,0.03,0.009,106.0,107.0,104.0,13.3,1505.2,327.2,-0.8,1.8,2470.671,13.29,0.045,311.4
2022-03-20T01:46:03,42.805,6.029,-0.023,0.017,0.009,107.0,106.0,105.0,13.4,1505.2,329.4,-0.7,1.8,2470.676,13.29,0.028,306.5
2022-03-20T01:49:03,42.805,6.029,-0.034,0.011,-0.023,106.0,106.0,103.0,13.4,1505.2,328.1,-0.8,1.9,2470.643,13.29,0.035,287.9
2022-03-20T01:52:03,42.805,6.029,-0.033,0.009,0.021,107.0,105.0,103.0,13.3,1505.2,326.6,-0.8,1.8,2470.651,13.29,0.034,285.3
2022-03-20T01:55:03,42.805,6.029,-0.028,-0.001,-0.013,107.0,106.0,104.0,13.3,1505.2,329.1,-0.7,1.8,2470.665,13.29,0.028,268.0
2022-03-20T01:58:03,42.805,6.029,-0.044,0.001,0.001,107.0,107.0,104.0,13.4,1505.2,325.3,-0.8,1.8,2470.655,13.29,0.044,271.3
2022-03-20T02:04:03,42.805,6.029,-0.042,-0.001,-0.027,108.0,106.0,104.0,13.4,1505.2,326.3,-0.8,1.8,2470.674,13.28,0.042,268.6
2022-03-20T02:07:03,42.805,6.029,-0.037,0.006,-0.006,107.0,105.0,103.0,13.4,1505.2,332.4,-0.8,1.8,2470.62,13.29,0.037,279.2
2022-03-20T02:10:03,42.805,6.029,-0.046,0.011,0.019,107.0,107.0,104.0,13.4,1505.2,326.2,-0.8,1.8,2470.624,13.29,0.047,283.4
2022-03-20T02:13:03,42.805,6.029,-0.019,-0.009,-0.009,107.0,107.0,104.0,13.4,1505.2,323.6,-0.8,1.8,2470.649,13.29,0.021,244.7
2022-03-20T02:16:03,42.805,6.029,-0.013,0.018,-0.013,106.0,106.0,104.0,13.4,1505.2,328.8,-0.7,1.8,2470.631,13.29,0.022,324.2
2022-03-20T02:19:03,42.805,6.029,-0.024,0.012,0.03,105.0,106.0,105.0,13.3,1505.2,329.1,-0.8,1.8,2470.611,13.29,0.026,296.6
2022-03-20T02:22:03,42.805,6.029,-0.03,0.02,-0.004,107.0,106.0,104.0,13.4,1505.2,327.9,-0.8,1.8,2470.644,13.29,0.036,303.7
2022-03-20T02:25:03,42.805,6.029,-0.02,0.013,0.001,110.0,106.0,104.0,13.4,1505.2,329.1,-0.8,1.8,2470.621,13.29,0.023,303.0
2022-03-20T02:28:03,42.805,6.029,-0.016,0.0,0.009,107.0,106.0,103.0,13.3,1505.2,325.6,-0.8,1.8,2470.631,13.29,0.016,270.0
2022-03-20T02:31:03,42.805,6.029,-0.012,0.001,-0.007,108.0,107.0,103.0,13.4,1505.2,322.7,-0.8,1.8,2470.636,13.29,0.012,274.8
2022-03-20T02:34:03,42.805,6.029,-0.013,0.01,0.003,110.0,106.0,104.0,13.4,1505.2,325.1,-0.8,1.8,2470.63,13.29,0.016,307.6
2022-03-20T02:37:03,42.805,6.029,-0.023,0.015,-0.017,107.0,106.0,104.0,13.4,1505.2,329.6,-0.8,1.8,2470.556,13.29,0.027,303.1
2022-03-20T02:40:03,42.805,6.029,-0.023,0.01,-0.03,107.0,107.0,104.0,13.3,1505.2,328.5,-0.7,1.8,2470.647,13.29,0.025,293.5
2022-03-20T02:43:03,42.805,6.029,-0.022,0.0,0.009,108.0,108.0,103.0,13.4,1505.2,326.0,-0.8,1.8,2470.649,13.29,0.022,270.0
2022-03-20T02:46:03,42.805,6.029,-0.038,0.033,0.013,107.0,105.0,104.0,13.3,1505.2,328.0,-0.8,1.8,2470.625,13.29,0.05,311.0
2022-03-20T02:49:03,42.805,6.029,-0.052,-0.006,-0.008,107.0,105.0,103.0,13.4,1505.2,322.9,-0.8,1.8,2470.608,13.29,0.052,263.4
2022-03-20T02:52:03,42.805,6.029,-0.004,0.013,0.006,105.0,107.0,103.0,13.4,1505.2,325.7,-0.7,1.8,2470.673,13.29,0.013,342.9
2022-03-20T02:55:03,42.805,6.029,-0.051,0.024,-0.001,106.0,105.0,103.0,13.4,1505.2,325.4,-0.7,1.8,2470.633,13.29,0.056,295.2
2022-03-20T02:58:03,42.805,6.029,-0.029,0.028,-0.011,106.0,107.0,104.0,13.4,1505.2,328.4,-0.8,1.8,2470.634,13.29,0.04,314.0
2022-03-20T03:04:03,42.805,6.029,-0.035,0.004,-0.038,106.0,106.0,103.0,13.4,1505.2,327.8,-0.8,1.8,2470.64,13.29,0.035,276.5
2022-03-20T03:07:03,42.805,6.029,-0.029,0.033,0.013,106.0,107.0,103.0,13.4,1505.2,323.4,-0.8,1.8,2470.648,13.29,0.043,318.7
2022-03-20T03:10:03,42.805,6.029,-0.037,0.031,0.002,106.0,106.0,103.0,13.4,1505.2,327.2,-0.7,1.8,2470.611,13.29,0.048,310.0
2022-03-20T03:13:03,42.805,6.029,-0.033,0.023,0.001,107.0,105.0,104.0,13.3,1505.2,329.6,-0.8,1.8,2470.627,13.29,0.04,304.9
2022-03-20T03:16:03,42.805,6.029,-0.049,0.031,0.017,107.0,105.0,104.0,13.4,1505.2,325.0,-0.8,1.8,2470.66,13.29,0.057,302.3
2022-03-20T03:19:03,42.805,6.029,-0.027,0.007,0.037,105.0,106.0,104.0,13.4,1505.2,329.2,-0.7,1.8,2470.627,13.29,0.027,284.5
2022-03-20T03:22:03,42.805,6.029,-0.024,0.019,0.003,106.0,105.0,104.0,13.4,1505.2,331.6,-0.8,1.8,2470.633,13.29,0.03,308.4
2022-03-20T03:25:03,42.805,6.029,-0.01,0.013,0.013,106.0,105.0,104.0,13.3,1505.2,324.3,-0.7,1.8,2470.661,13.29,0.016,322.4
2022-03-20T03:28:03,42.805,6.029,-0.012,0.025,0.009,105.0,106.0,103.0,13.4,1505.2,329.6,-0.7,1.8,2470.63,13.29,0.027,334.4
2022-03-20T03:31:03,42.805,6.029,-0.04,0.025,-0.009,107.0,105.0,103.0,13.3,1505.2,328.5,-0.7,1.8,2470.6,13.29,0.047,302.0
2022-03-20T03:34:03,42.805,6.029,-0.029,0.028,0.02,105.0,106.0,104.0,13.4,1505.2,326.2,-0.8,1.8,2470.632,13.29,0.04,314.0
2022-03-20T03:37:03,42.805,6.029,-0.024,0.027,0.021,106.0,105.0,103.0,13.4,1505.2,327.1,-0.8,1.8,2470.614,13.29,0.036,318.4
2022-03-20T03:40:03,42.805,6.029,-0.023,0.036,0.004,105.0,107.0,103.0,13.4,1505.2,329.8,-0.7,1.8,2470.606,13.29,0.042,327.4
2022-03-20T03:43:03,42.805,6.029,-0.017,0.014,0.0,106.0,106.0,104.0,13.4,1505.2,322.1,-0.8,1.8,2470.637,13.29,0.022,309.5
2022-03-20T03:46:03,42.805,6.029,-0.004,0.017,0.016,106.0,105.0,105.0,13.3,1505.2,322.8,-0.8,1.8,2470.647,13.29,0.017,346.8
2022-03-20T03:49:03,42.805,6.029,-0.019,0.014,-0.012,105.0,106.0,104.0,13.4,1505.2,326.3,-0.8,1.8,2470.608,13.29,0.023,306.4
2022-03-20T03:52:03,42.805,6.029,0.007,0.024,0.013,109.0,107.0,105.0,13.4,1505.2,328.8,-0.8,1.8,2470.595,13.29,0.025,16.3
2022-03-20T03:55:03,42.805,6.029,-0.004,0.022,0.029,104.0,106.0,104.0,13.4,1505.2,323.3,-0.7,1.8,2470.603,13.29,0.022,349.7
2022-03-20T03:58:03,42.805,6.029,-0.009,0.031,0.006,106.0,106.0,103.0,13.4,1505.2,326.9,-0.7,1.8,2470.617,13.29,0.032,343.8
2022-03-20T04:04:03,42.805,6.029,-0.001,0.022,0.039,106.0,106.0,103.0,13.4,1505.2,325.7,-0.8,1.8,2470.632,13.28,0.022,357.4
2022-03-20T04:07:03,42.805,6.029,-0.026,0.027,-0.001,105.0,105.0,104.0,13.4,1505.2,328.7,-0.7,1.8,2470.627,13.28,0.037,316.1
2022-03-20T04:10:03,42.805,6.029,-0.001,0.018,0.023,107.0,107.0,103.0,13.3,1505.2,327.6,-0.8,1.8,2470.623,13.29,0.018,356.8
2022-03-20T04:13:03,42.805,6.029,-0.01,0.043,0.004,105.0,107.0,104.0,13.3,1505.2,333.1,-0.7,1.8,2470.615,13.29,0.044,346.9
2022-03-20T04:16:03,42.805,6.029,-0.007,0.036,-0.005,105.0,107.0,103.0,13.4,1505.2,328.1,-0.7,1.8,2470.675,13.29,0.036,349.0
2022-03-20T04:19:03,42.805,6.029,-0.003,0.012,0.003,105.0,107.0,103.0,13.3,1505.2,325.5,-0.7,1.8,2470.64,13.29,0.012,346.0
2022-03-20T04:22:03,42.805,6.029,0.006,0.01,0.018,106.0,107.0,103.0,13.3,1505.2,326.3,-0.7,1.8,2470.652,13.29,0.011,31.0
2022-03-20T04:25:03,42.805,6.029,-0.015,0.033,0.019,105.0,106.0,104.0,13.3,1505.2,326.7,-0.7,1.8,2470.635,13.29,0.036,335.6
2022-03-20T04:28:03,42.805,6.029,-0.009,0.025,0.006,106.0,107.0,103.0,13.4,1505.2,322.8,-0.7,1.8,2470.685,13.29,0.026,340.2
2022-03-20T04:31:03,42.805,6.029,-0.009,0.019,-0.005,106.0,106.0,104.0,13.4,1505.2,325.3,-0.8,1.8,2470.61,13.29,0.021,334.7
2022-03-20T04:34:03,42.805,6.029,0.0,0.027,0.012,107.0,107.0,103.0,13.4,1505.2,327.0,-0.8,1.8,2470.625,13.29,0.026,0.0
2022-03-20T04:37:03,42.805,6.029,-0.008,0.026,0.018,106.0,107.0,103.0,13.4,1505.2,325.4,-0.8,1.8,2470.637,13.29,0.027,342.9
2022-03-20T04:40:03,42.805,6.029,-0.001,-0.005,0.009,105.0,107.0,102.0,13.3,1505.2,325.0,-0.7,1.8,2470.659,13.29,0.005,191.3
2022-03-20T04:43:03,42.805,6.029,0.016,0.035,0.024,106.0,106.0,104.0,13.3,1505.2,325.7,-0.8,1.8,2470.659,13.29,0.038,24.6
2022-03-20T04:46:03,42.805,6.029,0.011,0.022,0.007,105.0,106.0,103.0,13.4,1505.2,325.3,-0.7,1.8,2470.671,13.29,0.024,26.6
2022-03-20T04:49:03,42.805,6.029,0.02,0.01,0.005,104.0,109.0,103.0,13.4,1505.2,330.2,-0.7,1.8,2470.684,13.29,0.022,63.4
2022-03-20T04:52:03,42.805,6.029,-0.011,0.022,0.007,105.0,106.0,103.0,13.3,1505.2,324.5,-0.8,1.8,2470.682,13.29,0.024,333.4
2022-03-20T04:55:03,42.805,6.029,-0.008,0.037,0.025,105.0,108.0,103.0,13.4,1505.2,328.1,-0.8,1.8,2470.691,13.29,0.037,347.8
2022-03-20T04:58:03,42.805,6.029,0.002,0.019,-0.005,105.0,107.0,103.0,13.3,1505.2,326.3,-0.8,1.8,2470.677,13.29,0.019,6.0
2022-03-20T05:04:03,42.805,6.029,0.016,0.008,0.007,105.0,108.0,103.0,13.4,1505.2,331.9,-0.8,1.9,2470.74,13.28,0.017,63.4
2022-03-20T05:07:03,42.805,6.029,0.0,0.008,0.012,105.0,108.0,103.0,13.3,1505.2,326.3,-0.8,1.8,2470.688,13.29,0.008,0.0
2022-03-20T05:10:03,42.805,6.029,-0.015,0.02,0.007,105.0,106.0,103.0,13.4,1505.2,327.5,-0.7,1.8,2470.725,13.29,0.025,323.1
2022-03-20T05:13:03,42.805,6.029,0.011,0.0,-0.011,106.0,106.0,102.0,13.3,1505.2,327.9,-0.7,1.8,2470.697,13.29,0.011,90.0
2022-03-20T05:16:03,42.805,6.029,-0.009,0.023,-0.005,105.0,107.0,103.0,13.3,1505.2,330.9,-0.7,1.8,2470.732,13.29,0.024,338.6
2022-03-20T05:19:03,42.805,6.029,-0.007,0.016,0.004,105.0,106.0,103.0,13.4,1505.2,323.1,-0.8,1.8,2470.726,13.29,0.017,336.4
2022-03-20T05:22:03,42.805,6.029,0.006,0.008,-0.008,107.0,108.0,103.0,13.3,1505.2,323.5,-0.8,1.8,2470.736,13.29,0.01,36.9
2022-03-20T05:25:03,42.805,6.029,0.002,0.0,-0.001,104.0,107.0,103.0,13.3,1505.2,329.3,-0.7,1.8,2470.739,13.29,0.002,90.0
2022-03-20T05:28:03,42.805,6.029,0.01,0.024,0.043,105.0,107.0,103.0,13.3,1505.2,331.0,-0.8,1.8,2470.701,13.29,0.026,22.6
2022-03-20T05:31:03,42.805,6.029,-0.006,0.012,0.018,105.0,107.0,103.0,13.4,1505.2,325.0,-0.8,1.8,2470.71,13.29,0.013,333.4
2022-03-20T05:34:03,42.805,6.029,-0.003,0.027,0.006,106.0,107.0,103.0,13.4,1505.2,325.7,-0.7,1.8,2470.745,13.29,0.027,353.7
2022-03-20T05:37:03,42.805,6.029,0.008,0.033,-0.005,105.0,107.0,103.0,13.3,1505.2,331.4,-0.7,1.8,2470.694,13.29,0.033,13.6
2022-03-20T05:40:03,42.805,6.029,0.02,0.02,0.052,105.0,107.0,103.0,13.4,1505.2,328.6,-0.7,1.8,2470.746,13.29,0.028,45.0
2022-03-20T05:43:03,42.805,6.029,0.015,0.006,0.0,106.0,106.0,102.0,13.3,1505.2,327.5,-0.8,1.8,2470.725,13.29,0.016,68.2
2022-03-20T05:46:03,42.805,6.029,0.005,0.018,0.014,104.0,106.0,103.0,13.4,1505.2,326.7,-0.8,1.8,2470.73,13.29,0.018,15.5
2022-03-20T05:49:03,42.805,6.029,0.028,0.015,0.047,105.0,107.0,103.0,13.4,1505.2,325.8,-0.8,1.8,2470.76,13.29,0.031,61.8
2022-03-20T05:52:03,42.805,6.029,0.007,0.027,0.006,105.0,107.0,103.0,13.4,1505.2,328.6,-0.8,1.8,2470.767,13.29,0.027,14.5
2022-03-20T05:55:03,42.805,6.029,0.008,0.014,0.034,105.0,107.0,103.0,13.4,1505.2,323.5,-0.7,1.8,2470.767,13.29,0.016,29.7
2022-03-20T05:58:03,42.805,6.029,-0.014,0.043,0.043,105.0,106.0,103.0,13.4,1505.2,329.5,-0.7,1.9,2470.724,13.29,0.045,342.0
2022-03-20T06:04:04,42.805,6.029,0.028,0.013,0.043,105.0,107.0,102.0,13.3,1505.2,332.1,-0.8,1.8,2470.825,13.28,0.03,65.1
2022-03-20T06:07:03,42.805,6.029,-0.002,0.011,0.021,104.0,111.0,103.0,13.3,1505.2,331.9,-0.8,1.8,2470.768,13.28,0.011,349.7
2022-03-20T06:10:03,42.805,6.029,0.015,0.01,0.004,106.0,107.0,103.0,13.3,1505.2,332.1,-0.8,1.8,2470.779,13.28,0.018,56.3
2022-03-20T06:13:03,42.805,6.029,0.005,0.005,0.007,105.0,107.0,102.0,13.3,1505.2,326.9,-0.7,1.8,2470.775,13.29,0.007,45.0
2022-03-20T06:16:03,42.805,6.029,0.017,0.021,0.033,104.0,108.0,103.0,13.4,1505.2,329.5,-0.8,1.8,2470.806,13.29,0.027,39.0
2022-03-20T06:19:03,42.805,6.029,-0.003,0.003,0.045,103.0,107.0,102.0,13.3,1505.2,324.1,-0.8,1.8,2470.808,13.29,0.004,315.0
2022-03-20T06:22:03,42.805,6.029,0.019,0.027,0.022,104.0,108.0,101.0,13.4,1505.2,325.0,-0.8,1.9,2470.785,13.29,0.033,35.1
2022-03-20T06:25:03,42.805,6.029,0.01,0.001,-0.015,105.0,106.0,102.0,13.4,1505.2,326.9,-0.7,1.8,2470.78,13.29,0.01,84.3
2022-03-20T06:28:03,42.805,6.029,-0.006,0.007,0.003,106.0,106.0,103.0,13.4,1505.2,328.9,-0.8,1.8,2470.787,13.29,0.009,319.4
2022-03-20T06:31:03,42.805,6.029,0.012,0.005,0.0,104.0,106.0,102.0,13.4,1505.2,327.7,-0.8,1.8,2470.769,13.29,0.013,67.4
2022-03-20T06:34:03,42.805,6.029,-0.007,0.0,-0.005,105.0,106.0,102.0,13.4,1505.2,323.3,-0.8,1.8,2470.782,13.29,0.007,270.0
2022-03-20T06:37:03,42.805,6.029,-0.006,0.006,0.008,103.0,108.0,102.0,13.4,1505.2,325.5,-0.7,1.8,2470.808,13.29,0.008,315.0
2022-03-20T06:40:03,42.805,6.029,0.017,0.02,0.03,105.0,106.0,102.0,13.4,1505.2,331.3,-0.7,1.8,2470.796,13.29,0.026,40.4
2022-03-20T06:43:03,42.805,6.029,0.027,0.006,0.013,105.0,107.0,101.0,13.3,1505.2,322.2,-0.7,1.8,2470.846,13.29,0.027,77.5
2022-03-20T06:46:03,42.805,6.029,0.011,0.028,0.017,104.0,107.0,103.0,13.4,1505.2,332.1,-0.8,1.8,2470.795,13.29,0.03,21.4
2022-03-20T06:49:03,42.805,6.029,0.011,0.008,0.027,104.0,107.0,102.0,13.4,1505.2,324.7,-0.8,1.8,2470.826,13.29,0.013,54.0
2022-03-20T06:52:03,42.805,6.029,-0.009,0.002,-0.001,104.0,107.0,102.0,13.4,1505.2,326.3,-0.7,1.8,2470.831,13.29,0.009,282.5
2022-03-20T06:55:03,42.805,6.029,-0.038,0.034,0.026,104.0,106.0,102.0,13.4,1505.2,330.6,-0.7,1.8,2470.799,13.29,0.05,311.8
2022-03-20T06:58:03,42.805,6.029,0.005,0.017,0.02,104.0,106.0,103.0,13.3,1505.2,326.3,-0.8,1.8,2470.837,13.29,0.017,16.4
2022-03-20T07:04:03,42.805,6.029,0.006,0.02,0.004,104.0,106.0,103.0,13.3,1505.2,326.7,-0.8,1.8,2470.867,13.28,0.02,16.7
2022-03-20T07:07:03,42.805,6.029,0.004,0.005,0.004,103.0,106.0,102.0,13.4,1505.2,331.6,-0.7,1.8,2470.854,13.28,0.006,38.7
2022-03-20T07:10:03,42.805,6.029,0.011,0.025,0.025,105.0,107.0,103.0,13.4,1505.2,325.6,-0.7,1.8,2470.884,13.28,0.027,23.7
2022-03-20T07:13:03,42.805,6.029,0.005,0.018,-0.029,105.0,105.0,102.0,13.4,1505.2,328.9,-0.8,1.8,2470.839,13.28,0.018,15.5
2022-03-20T07:16:03,42.805,6.029,0.009,0.032,0.038,104.0,104.0,102.0,13.4,1505.2,329.0,-0.8,1.8,2470.859,13.28,0.033,15.7
2022-03-20T07:19:03,42.805,6.029,0.018,0.004,-0.006,104.0,105.0,102.0,13.3,1505.2,328.8,-0.8,1.8,2470.876,13.29,0.018,77.5
2022-03-20T07:22:03,42.805,6.029,0.021,0.014,0.026,105.0,105.0,102.0,13.4,1505.2,328.2,-0.7,1.8,2470.876,13.29,0.025,56.3
2022-03-20T07:25:03,42.805,6.029,0.021,-0.002,-0.007,105.0,105.0,102.0,13.3,1505.2,322.9,-0.8,1.8,2470.857,13.29,0.021,95.4
2022-03-20T07:28:03,42.805,6.029,0.004,0.017,0.0,104.0,105.0,103.0,13.4,1505.2,326.8,-0.8,1.8,2470.87,13.29,0.017,13.2
2022-03-20T07:31:03,42.805,6.029,-0.005,0.013,0.0,103.0,105.0,104.0,13.4,1505.2,323.8,-0.8,1.8,2470.86,13.29,0.013,339.0
2022-03-20T07:34:03,42.805,6.029,-0.005,0.016,0.006,105.0,106.0,102.0,13.3,1505.2,327.9,-0.7,1.8,2470.87,13.29,0.016,342.6
2022-03-20T07:37:03,42.805,6.029,0.008,0.018,-0.016,106.0,104.0,103.0,13.4,1505.2,323.4,-0.8,1.8,2470.875,13.29,0.019,24.0
2022-03-20T07:40:03,42.805,6.029,0.022,0.002,-0.012,104.0,105.0,103.0,13.4,1505.2,329.0,-0.8,1.9,2470.843,13.29,0.022,84.8
2022-03-20T07:43:03,42.805,6.029,0.014,0.018,0.02,104.0,104.0,102.0,13.3,1505.2,324.6,-0.8,1.8,2470.871,13.29,0.022,37.9
2022-03-20T07:46:03,42.805,6.029,-0.018,0.005,0.009,104.0,106.0,102.0,13.3,1505.2,325.2,-0.8,1.8,2470.856,13.29,0.018,285.5
2022-03-20T07:49:03,42.805,6.029,0.001,-0.005,0.015,105.0,106.0,102.0,13.4,1505.2,329.7,-0.8,1.8,2470.873,13.29,0.005,168.7
2022-03-20T07:52:03,42.805,6.029,-0.01,0.01,-0.003,104.0,106.0,102.0,13.4,1505.2,328.4,-0.8,1.8,2470.862,13.29,0.014,315.0
2022-03-20T07:55:03,42.805,6.029,-0.016,0.009,0.009,105.0,105.0,102.0,13.4,1505.2,327.7,-0.8,1.8,2470.851,13.29,0.018,299.4
2022-03-20T07:58:03,42.805,6.029,-0.003,0.009,0.024,104.0,105.0,103.0,13.3,1505.2,327.3,-0.7,1.8,2470.822,13.29,0.009,341.6
2022-03-20T08:04:03,42.805,6.029,0.005,0.0,0.015,106.0,105.0,103.0,13.4,1505.2,328.1,-0.8,1.8,2470.903,13.29,0.005,90.0
2022-03-20T08:07:03,42.805,6.029,-0.004,0.016,0.015,105.0,105.0,102.0,13.4,1505.2,326.9,-0.8,1.8,2470.889,13.29,0.016,346.0
2022-03-20T08:10:03,42.805,6.029,0.014,-0.001,0.019,104.0,106.0,103.0,13.4,1505.2,331.0,-0.7,1.8,2470.863,13.29,0.014,94.1
2022-03-20T08:13:03,42.805,6.029,-0.017,0.011,0.02,103.0,105.0,102.0,13.4,1505.2,323.0,-0.8,1.8,2470.914,13.29,0.02,302.9
2022-03-20T08:16:03,42.805,6.029,0.002,0.0,0.002,104.0,105.0,102.0,13.4,1505.2,327.9,-0.7,1.8,2470.879,13.29,0.002,90.0
2022-03-20T08:19:03,42.805,6.029,0.005,0.011,0.013,105.0,103.0,102.0,13.4,1505.2,327.1,-0.7,1.8,2470.871,13.29,0.012,24.4
2022-03-20T08:22:03,42.805,6.029,0.0,0.004,-0.001,104.0,105.0,102.0,13.4,1505.2,329.9,-0.7,1.8,2470.869,13.29,0.004,0.0
2022-03-20T08:25:03,42.805,6.029,0.028,0.024,0.023,105.0,104.0,102.0,13.4,1505.2,324.5,-0.8,1.8,2470.903,13.29,0.036,49.4
2022-03-20T08:28:03,42.805,6.029,-0.003,0.004,0.021,103.0,104.0,103.0,13.4,1505.2,332.4,-0.8,1.8,2470.884,13.29,0.005,323.1
2022-03-20T08:31:03,42.805,6.029,-0.005,0.029,0.015,104.0,105.0,103.0,13.3,1505.2,325.0,-0.7,1.8,2470.849,13.29,0.029,350.2
2022-03-20T08:34:03,42.805,6.029,0.0,-0.004,0.017,105.0,105.0,102.0,13.4,1505.2,327.6,-0.7,1.8,2470.908,13.29,0.004,180.0
2022-03-20T08:37:03,42.805,6.029,-0.001,-0.012,0.003,106.0,105.0,102.0,13.4,1505.2,332.9,-0.8,1.8,2470.848,13.29,0.012,184.8
2022-03-20T08:40:03,42.805,6.029,-0.008,0.018,0.02,104.0,104.0,103.0,13.4,1505.2,331.3,-0.7,1.8,2470.876,13.29,0.019,336.0
2022-03-20T08:43:03,42.805,6.029,0.0,0.0,-0.019,104.0,106.0,102.0,13.4,1505.2,327.3,-0.7,1.8,2470.88,13.29,0.0,0.0
2022-03-20T08:46:03,42.805,6.029,0.007,0.008,0.008,105.0,105.0,103.0,13.4,1505.2,325.4,-0.8,1.8,2470.9,13.29,0.01,41.2
2022-03-20T08:49:03,42.805,6.029,0.0,-0.001,0.001,104.0,106.0,103.0,13.4,1505.2,329.6,-0.8,1.8,2470.882,13.29,0.001,180.0
2022-03-20T08:52:03,42.805,6.029,0.008,0.021,-0.001,104.0,104.0,102.0,13.4,1505.2,323.0,-0.7,1.8,2470.854,13.29,0.022,20.9
2022-03-20T08:55:03,42.805,6.029,0.002,-0.012,-0.006,106.0,104.0,103.0,13.4,1505.2,325.1,-0.7,1.8,2470.843,13.29,0.012,170.5
2022-03-20T08:58:03,42.805,6.029,-0.012,0.008,-0.004,105.0,103.0,103.0,13.3,1505.2,322.9,-0.7,1.8,2470.879,13.29,0.014,303.7
2022-03-20T09:04:03,42.805,6.029,0.007,0.002,0.031,104.0,104.0,102.0,13.3,1505.2,324.4,-0.8,1.8,2470.866,13.29,0.007,74.1
2022-03-20T09:07:03,42.805,6.029,0.008,-0.005,0.0,103.0,104.0,103.0,13.4,1505.2,325.7,-0.7,1.8,2470.878,13.29,0.009,122.0
2022-03-20T09:10:03,42.805,6.029,0.009,0.001,0.021,104.0,105.0,102.0,13.4,1505.2,327.5,-0.7,1.8,2470.868,13.29,0.009,83.7
2022-03-20T09:13:03,42.805,6.029,0.003,0.009,0.004,103.0,106.0,102.0,13.3,1505.2,330.5,-0.7,1.8,2470.886,13.29,0.009,18.4
2022-03-20T09:16:03,42.805,6.029,0.0,0.014,0.001,105.0,105.0,102.0,13.4,1505.2,331.6,-0.8,1.8,2470.839,13.29,0.014,0.0
2022-03-20T09:19:03,42.805,6.029,0.005,0.005,0.032,103.0,105.0,103.0,13.4,1505.2,325.1,-0.7,1.8,2470.875,13.29,0.007,45.0
2022-03-20T09:22:03,42.805,6.029,-0.001,0.005,0.011,105.0,105.0,102.0,13.4,1505.2,328.7,-0.7,1.8,2470.877,13.29,0.005,348.7
2022-03-20T09:25:03,42.805,6.029,0.013,-0.005,0.005,105.0,105.0,102.0,13.3,1505.2,323.5,-0.8,1.8,2470.838,13.29,0.013,111.0
2022-03-20T09:28:03,42.805,6.029,0.011,0.006,0.002,103.0,105.0,102.0,13.4,1505.2,329.6,-0.8,1.8,2470.843,13.29,0.012,61.4
2022-03-20T09:31:03,42.805,6.029,0.0,0.016,-0.003,105.0,104.0,103.0,13.3,1505.2,326.0,-0.7,1.8,2470.859,13.29,0.016,0.0
2022-03-20T09:34:03,42.805,6.029,0.004,0.01,-0.027,104.0,104.0,102.0,13.3,1505.2,327.3,-0.8,1.8,2470.854,13.29,0.01,21.8
2022-03-20T09:37:03,42.805,6.029,0.018,0.012,0.032,104.0,106.0,102.0,13.4,1505.2,328.5,-0.8,1.8,2470.831,13.29,0.021,56.3
2022-03-20T09:40:03,42.805,6.029,0.001,0.0,0.002,103.0,104.0,102.0,13.3,1505.2,328.4,-0.7,1.8,2470.826,13.29,0.001,90.0
2022-03-20T09:43:03,42.805,6.029,0.0,0.007,0.003,105.0,105.0,103.0,13.3,1505.2,332.7,-0.7,1.8,2470.899,13.29,0.007,0.0
2022-03-20T09:46:03,42.805,6.029,-0.014,0.004,-0.006,104.0,104.0,103.0,13.3,1505.2,331.5,-0.7,1.8,2470.826,13.29,0.014,285.9
2022-03-20T09:49:03,42.805,6.029,0.009,0.007,0.028,104.0,105.0,102.0,13.4,1505.2,325.8,-0.8,1.8,2470.85,13.29,0.011,52.1
2022-03-20T09:52:03,42.805,6.029,0.009,0.008,0.015,104.0,104.0,101.0,13.4,1505.2,327.5,-0.7,1.8,2470.804,13.29,0.012,48.4
2022-03-20T09:55:03,42.805,6.029,0.011,0.003,0.005,103.0,104.0,103.0,13.4,1505.2,325.5,-0.7,1.8,2470.775,13.29,0.011,74.7
2022-03-20T09:58:03,42.805,6.029,0.019,0.015,0.013,104.0,104.0,102.0,13.4,1505.2,330.2,-0.8,1.8,2470.855,13.29,0.024,51.7
2022-03-20T10:04:03,42.805,6.029,-0.007,0.0,0.01,104.0,105.0,102.0,13.4,1505.2,326.1,-0.8,1.8,2470.841,13.29,0.007,270.0